Time,TemperatureF,DewpointF,PressureIn,WindDirection,WindDirectionDegrees,WindSpeedMPH,WindSpeedGustMPH,Humidity,HourlyPrecipIn,Conditions,Clouds,dailyrainin,SoftwareType,DateUTC
2013-08-28 12:14:00,79.0,-99.9,-100.00,NE,43,5.0,6.0,-999,0.00,,,0.00,,2013-08-28 17:14:00,
2013-08-28 12:24:00,79.0,-99.9,-100.00,NE,43,5.0,6.0,-999,0.00,,,0.00,,2013-08-28 17:24:00,
2013-08-28 12:44:00,83.0,-99.9,-100.00,North,354,3.0,4.0,-999,0.00,,,0.00,,2013-08-28 17:44:00,
2013-08-28 12:52:00,83.0,-99.9,-100.00,North,354,3.0,4.0,-999,0.00,,,0.00,,2013-08-28 17:52:00,
2013-08-28 13:12:00,83.0,-99.9,-100.00,North,8,5.0,8.0,-999,0.00,,,0.00,,2013-08-28 18:12:00,
2013-08-28 13:22:00,83.0,-99.9,-100.00,North,8,5.0,8.0,-999,0.00,,,0.00,,2013-08-28 18:22:00,
2013-08-28 13:42:00,81.0,-99.9,-100.00,ENE,59,9.0,12.0,-999,0.00,,,0.00,,2013-08-28 18:42:00,
2013-08-28 13:53:00,81.0,-99.9,-100.00,ENE,59,9.0,12.0,-999,0.00,,,0.00,,2013-08-28 18:53:00,
2013-08-28 14:12:00,82.0,-99.9,-100.00,NE,42,4.0,7.0,-999,0.00,,,0.00,,2013-08-28 19:12:00,
2013-08-28 14:22:00,82.0,-99.9,-100.00,NE,42,4.0,7.0,-999,0.00,,,0.00,,2013-08-28 19:22:00,
2013-08-28 14:42:00,81.0,-99.9,-100.00,ENE,59,7.0,10.0,-999,0.00,,,0.00,,2013-08-28 19:42:00,
2013-08-28 14:53:00,81.0,-99.9,-100.00,ENE,59,7.0,10.0,-999,0.00,,,0.00,,2013-08-28 19:53:00,
2013-08-28 15:12:00,82.0,-99.9,-100.00,NE,42,5.0,6.0,-999,0.00,,,0.00,,2013-08-28 20:12:00,
2013-08-28 15:23:00,82.0,-99.9,-100.00,NE,42,5.0,6.0,-999,0.00,,,0.00,,2013-08-28 20:23:00,
2013-08-28 15:43:00,84.0,-99.9,-100.00,North,10,4.0,6.0,-999,0.00,,,0.00,,2013-08-28 20:43:00,
2013-08-28 15:52:00,84.0,-99.9,-100.00,North,10,4.0,6.0,-999,0.00,,,0.00,,2013-08-28 20:52:00,
2013-08-28 16:12:00,83.0,-99.9,-100.00,NNW,346,2.0,5.0,-999,0.00,,,0.00,,2013-08-28 21:12:00,
2013-08-28 16:22:00,83.0,-99.9,-100.00,NNW,346,2.0,5.0,-999,0.00,,,0.00,,2013-08-28 21:22:00,
2013-08-28 16:44:00,83.0,-99.9,-100.00,North,355,3.0,4.0,-999,0.00,,,0.00,,2013-08-28 21:44:00,
2013-08-28 16:58:00,83.0,-99.9,-100.00,North,355,3.0,4.0,-999,0.00,,,0.00,,2013-08-28 21:58:00,
2013-08-28 17:15:00,82.0,-99.9,-100.00,NNE,20,3.0,4.0,-999,0.00,,,0.00,,2013-08-28 22:15:00,
2013-08-28 17:25:00,82.0,-99.9,-100.00,NNE,20,3.0,4.0,-999,0.00,,,0.00,,2013-08-28 22:25:00,
2013-08-28 17:43:00,83.0,-99.9,-100.00,NE,47,6.0,8.0,-999,0.00,,,0.00,,2013-08-28 22:43:00,
2013-08-28 17:54:00,83.0,-99.9,-100.00,NE,47,6.0,8.0,-999,0.00,,,0.00,,2013-08-28 22:54:00,
2013-08-28 18:13:00,83.0,-99.9,-100.00,NE,49,5.0,6.0,-999,0.00,,,0.00,,2013-08-28 23:13:00,
2013-08-28 18:22:00,83.0,-99.9,-100.00,NE,49,5.0,6.0,-999,0.00,,,0.00,,2013-08-28 23:22:00,
2013-08-28 18:42:00,83.0,-99.9,-100.00,NE,41,5.0,7.0,-999,0.00,,,0.00,,2013-08-28 23:42:00,
2013-08-28 18:53:00,83.0,-99.9,-100.00,NE,41,5.0,7.0,-999,0.00,,,0.00,,2013-08-28 23:53:00,
2013-08-28 19:12:00,84.0,-99.9,-100.00,East,87,2.0,4.0,-999,0.00,,,0.00,,2013-08-29 00:12:00,
2013-08-28 20:13:00,82.0,-99.9,-100.00,ENE,64,5.0,6.0,-999,0.00,,,0.00,,2013-08-29 01:13:00,
2013-08-28 20:22:00,82.0,-99.9,-100.00,ENE,64,5.0,6.0,-999,0.00,,,0.00,,2013-08-29 01:22:00,
2013-08-28 20:42:00,81.0,-99.9,-100.00,ENE,61,2.0,3.0,-999,0.00,,,0.00,,2013-08-29 01:42:00,
2013-08-28 20:53:00,81.0,-99.9,-100.00,ENE,61,2.0,3.0,-999,0.00,,,0.00,,2013-08-29 01:53:00,
2013-08-28 21:12:00,80.0,-99.9,-100.00,East,86,1.0,2.0,-999,0.00,,,0.00,,2013-08-29 02:12:00,
2013-08-28 21:22:00,80.0,-99.9,-100.00,East,86,1.0,2.0,-999,0.00,,,0.00,,2013-08-29 02:22:00,
2013-08-28 21:52:00,79.0,-99.9,-100.00,NE,41,3.0,4.0,-999,0.00,,,0.00,,2013-08-29 02:52:00,
2013-08-28 22:12:00,79.0,-99.9,-100.00,North,8,3.0,5.0,-999,0.00,,,0.00,,2013-08-29 03:12:00,
2013-08-28 22:23:00,79.0,-99.9,-100.00,North,8,3.0,5.0,-999,0.00,,,0.00,,2013-08-29 03:23:00,
2013-08-28 22:45:00,78.0,-99.9,-100.00,North,5,3.0,5.0,-999,0.00,,,0.00,,2013-08-29 03:45:00,
2013-08-28 22:57:00,78.0,-99.9,-100.00,North,5,3.0,5.0,-999,0.00,,,0.00,,2013-08-29 03:57:00,
2013-08-28 23:18:00,77.0,-99.9,-100.00,NNE,21,1.0,3.0,-999,0.00,,,0.00,,2013-08-29 04:18:00,
2013-08-28 23:28:00,77.0,-99.9,-100.00,NNE,21,1.0,3.0,-999,0.00,,,0.00,,2013-08-29 04:28:00,
2013-08-28 23:46:00,76.0,-99.9,-100.00,South,181,0.0,1.0,-999,0.00,,,0.00,,2013-08-29 04:46:00,
2013-08-28 23:54:00,76.0,-99.9,-100.00,South,181,0.0,1.0,-999,0.00,,,0.00,,2013-08-29 04:54:00,